Weather History for St. Paul, MN

Change the Weather History Date:

Sunday, September 15, 2013

  Actual Average Record
Temperature  
Mean Temperature 58 °F -  
Max Temperature 66 °F 71 °F 84 °F (2012)
Min Temperature 51 °F 51 °F 36 °F (2011)
Degree Days  
Heating Degree Days 7    
Growing Degree Days 8 (Base 50)    
Moisture  
Dew Point 53 °F    
Average Humidity 82    
Maximum Humidity 96    
Minimum Humidity 63    
Precipitation  
Precipitation 0.27 in - - ()
Sea Level Pressure  
Sea Level Pressure 30.07 in    
Wind  
Wind Speed 8 mph (NNE)    
Max Wind Speed 17 mph    
Max Gust Speed 23 mph    
Visibility 9 miles    
Events Rain    
Averages and records for this station are not official NWS values.
T = Trace of Precipitation, MM = Missing Value Source: NWS Daily Summary

Daily Weather History Graph

Daily Weather History Graph

Search for Another Location

Airport:

Trip Planner

Search our weather history database for the weather conditions in past years. The results will help you decide how hot, cold, wet, or windy it might be!

Date:

Astronomy

Sep. 15, 2013 Rise Set
Actual Time 6:51 AM CDT 7:22 PM CDT
Civil Twilight 6:21 AM CDT 7:51 PM CDT
Nautical Twilight 5:46 AM CDT 8:26 PM CDT
Astronomical Twilight 5:10 AM CDT 9:02 PM CDT
Moon 4:57 PM CDT (9/15) 2:20 AM CDT (9/15)
Length of Visible Light 13h 30m
Length of Day
12h 31m
Waxing Gibbous, 82% of the Moon is Illuminated
Sep 15
Waxing Gibbous
Sep 19
Full
Sep 26
Last Quarter
Oct 4
New
Oct 11
First Quarter

Hourly Weather History & Observations

Time (CDT) Temp. Dew Point Humidity Pressure Visibility Wind Dir Wind Speed Gust Speed Precip Events Conditions
12:21 AM 57.2 °F 55.4 °F 94% 29.93 in 8.0 mi SE 9.2 mph - N/A   Overcast
12:53 AM 57.0 °F 55.9 °F 96% 29.91 in 5.0 mi SE 6.9 mph - 0.01 in Rain Light Rain
1:06 AM 57.2 °F 55.4 °F 94% 29.91 in 10.0 mi SE 8.1 mph - 0.00 in   Overcast
1:53 AM 57.0 °F 55.0 °F 93% 29.90 in 7.0 mi SE 9.2 mph - 0.00 in   Overcast
2:04 AM 57.2 °F 55.4 °F 94% 29.91 in 5.0 mi SE 11.5 mph - 0.01 in Rain Light Rain
2:53 AM 57.0 °F 55.0 °F 93% 29.89 in 8.0 mi SE 8.1 mph - 0.03 in Rain Light Rain
3:49 AM 57.2 °F 55.4 °F 94% 29.92 in 5.0 mi East 3.5 mph - 0.07 in Rain Rain
3:50 AM 57.0 °F 55.0 °F 93% 29.91 in 5.0 mi East 3.5 mph - 0.08 in Rain Rain
4:53 AM 57.0 °F 55.0 °F 93% 29.93 in 4.0 mi ENE 3.5 mph - 0.11 in Rain Rain
5:03 AM 57.2 °F 55.4 °F 94% 29.93 in 5.0 mi NE 4.6 mph - 0.02 in Rain Rain
5:28 AM 57.2 °F 55.4 °F 94% 29.94 in 10.0 mi NNE 5.8 mph - 0.04 in Rain Light Rain
5:53 AM 57.0 °F 55.0 °F 93% 29.95 in 10.0 mi North 4.6 mph - 0.04 in   Overcast
6:53 AM 57.0 °F 55.0 °F 93% 29.97 in 10.0 mi NNE 5.8 mph - N/A   Overcast
7:53 AM 57.9 °F 55.0 °F 90% 29.99 in 10.0 mi NNE 5.8 mph - N/A   Overcast
8:08 AM 57.2 °F 55.4 °F 94% 30.00 in 10.0 mi NE 6.9 mph - N/A   Overcast
8:53 AM 57.9 °F 54.0 °F 87% 30.02 in 10.0 mi North 9.2 mph - N/A   Mostly Cloudy
9:01 AM 57.2 °F 55.4 °F 94% 30.03 in 10.0 mi North 6.9 mph - N/A   Overcast
9:30 AM 60.8 °F 55.4 °F 82% 30.05 in 10.0 mi North 6.9 mph - N/A   Mostly Cloudy
9:38 AM 60.8 °F 55.4 °F 82% 30.05 in 10.0 mi North 9.2 mph - N/A   Mostly Cloudy
9:53 AM 60.1 °F 55.0 °F 83% 30.05 in 10.0 mi North 11.5 mph 17.3 mph N/A   Overcast
10:09 AM 60.8 °F 55.4 °F 82% 30.06 in 10.0 mi North 13.8 mph 18.4 mph N/A   Overcast
10:53 AM 62.1 °F 54.0 °F 75% 30.08 in 10.0 mi North 9.2 mph - N/A   Overcast
11:10 AM 60.8 °F 53.6 °F 77% 30.09 in 10.0 mi North 12.7 mph 18.4 mph N/A   Overcast
11:43 AM 62.6 °F 53.6 °F 72% 30.10 in 10.0 mi North 11.5 mph - N/A   Overcast
11:53 AM 62.1 °F 54.0 °F 75% 30.10 in 10.0 mi North 11.5 mph - N/A   Overcast
12:45 PM 60.8 °F 53.6 °F 77% 30.13 in 10.0 mi North 12.7 mph 20.7 mph N/A   Overcast
12:53 PM 62.1 °F 54.0 °F 75% 30.12 in 10.0 mi North 8.1 mph - N/A   Overcast
1:00 PM 62.6 °F 53.6 °F 72% 30.13 in 10.0 mi North 6.9 mph - N/A   Overcast
1:53 PM 63.0 °F 54.0 °F 72% 30.14 in 10.0 mi North 9.2 mph - N/A   Overcast
2:53 PM 64.0 °F 54.0 °F 70% 30.15 in 10.0 mi North 13.8 mph 19.6 mph N/A   Mostly Cloudy
3:53 PM 64.9 °F 54.0 °F 68% 30.17 in 10.0 mi North 13.8 mph 20.7 mph N/A   Scattered Clouds
4:29 PM 64.4 °F 53.6 °F 68% 30.18 in 10.0 mi North 15.0 mph 20.7 mph N/A   Mostly Cloudy
4:53 PM 63.0 °F 53.1 °F 70% 30.20 in 10.0 mi North 12.7 mph 21.9 mph N/A   Mostly Cloudy
5:42 PM 64.4 °F 51.8 °F 64% 30.21 in 10.0 mi NNE 12.7 mph 19.6 mph N/A   Overcast
5:53 PM 64.0 °F 51.1 °F 63% 30.21 in 10.0 mi North 17.3 mph 23.0 mph N/A   Overcast
6:53 PM 61.0 °F 50.0 °F 67% 30.24 in 10.0 mi NNE 10.4 mph 21.9 mph N/A   Overcast
7:53 PM 57.9 °F 48.0 °F 70% 30.26 in 10.0 mi ENE 6.9 mph - N/A   Partly Cloudy
8:53 PM 55.9 °F 46.9 °F 72% 30.29 in 10.0 mi NE 8.1 mph - N/A   Clear
9:53 PM 54.0 °F 45.0 °F 72% 30.30 in 10.0 mi ENE 4.6 mph - N/A   Clear
10:53 PM 52.0 °F 45.0 °F 77% 30.32 in 10.0 mi NE 3.5 mph - N/A   Clear
11:53 PM 51.1 °F 44.1 °F 77% 30.34 in 10.0 mi NE 4.6 mph - N/A   Clear